Inquirer Daily News

Weather

Get conditions and forecasts for any City, State, ZIP code or Country:  
Northeast Philadelphia, PA
on Thursday, November 29, 2012

Thursday
Previous Day Next Day
Daily Summary
 ActualAverage (KTTN)Record (KTTN)
Temperature
Mean Temperature °F 41°F  
Max Temperature 45°F 49°F 70°F (1990)
Min Temperature 28°F 33°F 14°F (1929)
Degree Days
Heating Degree Days 28 24  
Month to date heating degree days 556  
Since 1 July heating degree days 953  
Cooling Degree Days 0 0  
Month to date cooling degree days 0  
Year to date cooling degree days 965  
Moisture
Dew Point 22°F   
Average Humidity 58    
Maximum Humidity 79    
Minimum Humidity 40    
Precipitation
Precipitation 0.00 in 0.13 in 1.40 in (1987)
Month to date precipitation 3.17  
Year to date precipitation 42.60  
Wind
Wind Speed 6 mph   
Max Wind Speed 17 mph   
Max Gust Speed 22 mph   
Visibility 10 miles   
Events     

Key: T is trace of precipitation, MM is missing value
Source: NWS Daily Summary
Time(EST)TemperatureDew PointHumidity Pressure Visibility Wind DirectionWind SpeedGust SpeedPrecipitationEvents Conditions
12:54 AM 32.0°F 19.9°F 61% 30.34 in 10.0 miles WSW 5.8 mph - N/A   Clear
1:54 AM 30.9°F 19.9°F 64% 30.35 in 10.0 miles West 5.8 mph - N/A   Clear
2:54 AM 30.9°F 19.9°F 64% 30.36 in 10.0 miles West 6.9 mph - N/A   Clear
3:54 AM 30.0°F 19.0°F 64% 30.35 in 10.0 miles WSW 4.6 mph - N/A   Clear
4:54 AM 30.9°F 19.9°F 64% 30.35 in 10.0 miles WSW 4.6 mph - N/A   Clear
5:54 AM 28.9°F 19.9°F 69% 30.37 in 10.0 miles WSW 3.5 mph - N/A   Clear
6:54 AM 30.0°F 19.9°F 66% 30.38 in 10.0 miles West 3.5 mph - N/A   Clear
7:54 AM 33.1°F 21.9°F 64% 30.39 in 10.0 miles WSW 4.6 mph - N/A   Clear
8:54 AM 36.0°F 24.1°F 62% 30.41 in 10.0 miles West 8.1 mph - N/A   Clear
9:54 AM 39.0°F 24.1°F 55% 30.43 in 10.0 miles West 11.5 mph - N/A   Clear
10:54 AM 43.0°F 25.0°F 49% 30.42 in 10.0 miles WNW 13.8 mph - N/A   Clear
11:54 AM 42.1°F 24.1°F 49% 30.41 in 10.0 miles West 15.0 mph 19.6 mph N/A   Clear
12:54 PM 45.0°F 25.0°F 46% 30.39 in 10.0 miles West 17.3 mph 21.9 mph N/A   Clear
1:54 PM 45.0°F 23.0°F 42% 30.35 in 10.0 miles West 13.8 mph 20.7 mph N/A   Clear
2:54 PM 45.0°F 21.9°F 40% 30.34 in 10.0 miles WNW 10.4 mph - N/A   Clear
3:54 PM 44.1°F 21.9°F 42% 30.35 in 10.0 miles West 6.9 mph - N/A   Clear
4:54 PM 39.9°F 21.0°F 47% 30.34 in 10.0 miles WSW 4.6 mph - N/A   Clear
5:54 PM 39.0°F 23.0°F 53% 30.35 in 10.0 miles WSW 5.8 mph - N/A   Clear
6:54 PM 39.0°F 21.9°F 50% 30.36 in 10.0 miles WSW 4.6 mph - N/A   Clear
7:54 PM 36.0°F 23.0°F 59% 30.37 in 10.0 miles SW 3.5 mph - N/A   Clear
8:54 PM 34.0°F 23.0°F 64% 30.37 in 10.0 miles Calm Calm - N/A   Clear
9:54 PM 30.9°F 21.9°F 69% 30.37 in 10.0 miles Calm Calm - N/A   Clear
10:54 PM 30.9°F 23.0°F 72% 30.36 in 10.0 miles Calm Calm - N/A   Clear
11:54 PM 30.0°F 24.1°F 79% 30.36 in 9.0 miles Calm Calm - N/A   Clear
Astronomy
Sunrise:07:01 AM (EST) Moon Rise:05:36 PM (EST)11/29
Sunset:04:35 PM (EST) Moon Set:07:46 AM (EST)11/29
Moon Phase
Nov. 29 Dec. 06 Dec. 13 Dec. 20 Dec. 28

Copyright © 2014 The Weather Underground, Inc.